Showing default

UPPER FREE FLYER, 43763

Orbit data source: Space-Track

UPPER FREE FLYER, 43763 is a payload satellite owned by Spaceflight Ind (US) in SSO that was launched on Mon, 03 Dec 2018 UTC via an FALCON 9 launch vehicle from the Air Force Western Test Range (AFWTR). Payload-class satellites include a variety of spacecraft equipped with specific instruments for various scientific and technological missions. These include communications satellites like Starlink; space stations such as the ISS; scientific satellites like the Hubble; Earth observation satellites from companies like Planet Labs, Umbra, and HawkEye 360; GPS; miniature CubeSats for education and research; and military/defense satellites.

Loading next visibility...
Identifier
43763, 2018-099F
Orbit
SSO
Country
Flag of USUS
Related business
Manufacturer
Spaceflight Ind
Mission
Commercial Technology
Bus & Motor
SFL-UFF, Unknown motor
Mass
2,271 kg wet, 1,072 kg dry
Launch date (UTC)
2018-12-03 (8 years ago)
Launch vehicle
FALCON 9
Launch site
Air Force Western Test Range (AFWTR)
Object type
Payload
Rocket body
Debris
Shape & HBR
Cyl + 1 Sail, 2.0 m
Radar Cross Section
6.440 m², Large (>1 m²)

Expand to show TLE details & history
Last TLE update: 2 days ago

TLE from 2 days ago
0 UPPER FREE FLYER
1 43763U 18099F   26171.40622611  .00003122  00000-0  18774-3 0  9997
2 43763  97.4353 220.4066 0011237 296.4059  63.6018 15.11531854413034
Epoch: 2026-06-20T09:44Z
TLE epoch observation values (Epoch: 2026-06-20T09:44:57.935Z)
Latitude
-0.00002°
Longitude
165.5439°
Altitude
531.16 km
Speed
7.599 km/s
True Right ascension
14h 41m 37s
True Declination
0° 00' 00"
Sunlit
Object was in full shadow at epoch
Visualization orbit readout
Latitude
Unknown
Longitude
Unknown
Altitude
Unknown
Speed
Unknown
Apparent Right ascension
Unknown
Apparent Declination
Unknown
Sunlit
N/A
Visualization observer readout
Local Sidereal Time
21:36:39
Azimuth
Unknown
Elevation
Unknown
Doppler factor
Unknown
Orbital elements
Apogee altitude
536.267 km
Perigee altitude
520.745 km
Semi-major axis
6,906.643 km
Eccentricity
0.00112
Inclination
97.4353°
RAAN
220.4066°
Arg. of periapsis
296.4059°
True anomaly
63.71721°
Mean anomaly
63.6018°
Eccentric anomaly
63.6595°
Mean motion
3.78131 °/min
Orbital period
95.21 mins
BSTAR
0.00018774
Loading maneuver chart data...
Computing Atmospheric mass density...
Loading historical data...
Loading historical data...
Loading historical data...
Loading historical data...
Loading historical data...
Loading historical data...
Loading historical data...

Documentation

Showing up to 5 results
|